Location: Poughquag
(41.6090°N, 73.6820°W)
Time: 02:38:32
(UTC-04:00)

Transit 4A - Pass Details

Date: 30 May 2020
Orbit: 866 x 978 km, 66.8° (Epoch: 06 July)

Event Time Altitude Azimuth Distance (km) Brightness Sun altitude
Rises 12:08:53 0° 324° (NW) 3,575 10.7 68.3°
Reaches altitude 10° 12:11:28 10° 319° (NW) 2,645 10.2 68.5°
Maximum altitude 12:17:20 48° 247° (WSW) 1,231 9.4 69.0°
Drops below altitude 10° 12:23:19 10° 176° (S) 2,694 10.8 69.4°
Sets 12:25:59 0° 170° (S) 3,647 11.3 69.5°
